Flag for U.S.A. Weather past 2 weeks in Rochester, New York, U.S.A.

Now
64 °F

Scattered clouds.


Feels Like: 64 °F
Forecast: 57 / 74 °F
Wind: 6 mph from Northwest

Location: Greater Rochester International Airport

Current Time: Aug 27, 2015 at 9:07:00 PM

Latest Report: Aug 27, 2015 at 7:54 PM


Visibility: 10 mi

Pressure: 30.15 "Hg

Humidity: 65%

Dew point: 52 °F

Location of RochesterLocation

Historic Weather in Rochester — Graph

°F

Rochester temperature yesterday

Maximum temperature yesterday: 70 °F (at 12:54 PM)
Minimum temperature yesterday: 59 °F (at 4:54 AM)
Average temperature yesterday: 64 °F

Past Weeks' High & Low Weather Summary

 TemperatureHumidityPressure
High88 °F (Aug 17, 2:54 PM)100% (Aug 20, 3:54 PM)30.22 "Hg (Aug 20, 3:54 PM)
Low53 °F (Aug 13, 3:54 AM)37% (Aug 24, 4:54 PM)29.78 "Hg (Aug 20, 1:54 PM)
Average71 °F71%30.01 "Hg
* Reported Aug 12 7:54 PM — Aug 27 7:54 PM, Rochester, Weather by CustomWeather, © 2015

Note: Actual official high and low records may vary slightly from our data, if they occured in-between our weather recording intervals... More about our weather records

Advertising

Rochester weather history for previous 24 hours

 ConditionsComfort  
Time TempWeatherWind HumidityBarometerVisibility
7:54 PM
Thu, Aug 27
64 °FScattered clouds.6 mph65%30.15 "Hg10 mi
6:54 PM67 °FMostly cloudy.7 mph61%30.14 "Hg10 mi
5:54 PM68 °FPartly sunny.8 mph61%30.13 "Hg10 mi
4:54 PM67 °FBroken clouds.7 mph61%30.13 "Hg10 mi
4:04 PM65 °FMostly cloudy.8 mph66%30.13 "Hg10 mi
2:54 PM65 °FCloudy.10 mph66%30.14 "Hg10 mi
1:54 PM66 °FMostly cloudy.3 mph65%30.14 "Hg10 mi
12:54 PM64 °FMostly cloudy.6 mph75%30.15 "Hg10 mi
11:54 AM65 °FCloudy.10 mph66%30.14 "Hg10 mi
10:54 AM64 °FMostly cloudy.10 mph78%30.14 "Hg10 mi
9:54 AM61 °FLight rain. Cloudy.10 mph83%30.14 "Hg3 mi
8:54 AM61 °FMostly cloudy.9 mph78%30.13 "Hg10 mi
7:54 AM60 °FOvercast.8 mph78%30.11 "Hg10 mi
6:54 AM59 °FOvercast.8 mph81%30.10 "Hg10 mi
5:54 AM59 °FOvercast.9 mph84%30.09 "Hg10 mi
4:54 AM59 °FMostly cloudy.8 mph84%30.08 "Hg10 mi
3:54 AM60 °FOvercast.8 mph78%30.07 "Hg10 mi
2:54 AM60 °FOvercast.8 mph83%30.07 "Hg10 mi
1:54 AM60 °FPassing clouds.7 mph83%30.08 "Hg10 mi
12:54 AM60 °FPassing clouds.6 mph83%30.08 "Hg10 mi
11:54 PM
Wed, Aug 26
62 °FPassing clouds.9 mph80%30.07 "Hg10 mi
10:54 PM62 °FPassing clouds.7 mph83%30.06 "Hg10 mi
9:54 PM63 °FPartly cloudy.7 mph81%30.06 "Hg10 mi
Weather by CustomWeather, © 2015

See weather overviewHow to use our weather pages